Theta_e
351 350 350 351 353 353 355 353 352 352 350 351 350 350 352 352 352 352 351 352 351 350 348 347 344 340 335 329 325 326 329 330 329 326 325 325 327 326 326 328 329 330 329 328 329 328 329 337 341 342 344 344 342 344 343 341 343 345 345 350 352 348 345
350 350 349 350 352 352 354 354 353 353 352 351 351 351 352 352 353 353 353 353 352 352 350 348 346 342 336 330 327 325 325 329 329 328 326 325 325 325 326 327 328 329 330 328 329 330 329 330 334 337 342 344 343 342 342 340 340 342 342 346 351 347 345
350 350 349 350 353 353 354 355 354 354 353 353 352 352 353 353 354 354 354 354 354 353 353 350 348 345 339 334 329 325 324 325 327 328 327 326 326 326 326 326 326 327 329 328 329 331 331 330 331 333 338 343 343 341 342 341 341 341 340 342 346 345 344
350 350 349 349 352 354 354 355 354 354 354 354 354 354 354 354 355 355 354 355 356 355 355 353 351 348 344 339 333 328 325 324 325 326 327 327 326 326 326 326 325 326 327 327 328 330 332 332 332 332 334 338 342 342 342 341 341 341 341 340 341 341 341
351 350 350 350 352 353 355 354 354 355 354 355 354 354 354 355 355 355 356 356 356 356 356 355 353 351 348 343 337 331 327 324 323 325 325 326 326 326 326 327 326 326 326 326 328 331 332 332 333 334 333 334 338 341 342 342 340 340 340 341 340 339 339
349 350 350 352 352 353 354 354 354 355 354 354 354 354 355 355 355 356 355 356 356 356 357 357 355 353 351 347 341 335 330 326 324 324 324 324 325 326 326 326 326 326 326 326 328 331 332 333 334 335 336 334 336 340 342 342 341 339 339 340 340 340 339
350 351 352 353 354 354 354 354 354 353 353 354 354 355 356 356 356 356 357 356 356 357 358 358 357 355 353 350 346 341 335 330 326 324 324 324 325 325 325 325 326 326 326 326 328 332 333 333 333 335 337 336 335 337 341 342 341 340 339 338 339 340 340
350 352 353 354 354 354 353 353 352 351 353 353 353 356 357 357 357 357 357 357 357 357 358 358 358 357 355 352 349 345 340 335 331 328 325 324 324 325 325 325 326 325 326 327 330 333 334 334 333 334 337 339 338 336 338 341 341 341 340 338 338 339 340
350 352 352 352 352 353 352 351 350 352 353 354 354 356 356 358 358 357 358 358 357 358 358 358 359 358 357 355 352 349 345 341 337 332 329 326 325 325 326 325 326 326 328 329 331 333 335 334 334 333 335 338 339 337 338 339 340 341 340 340 339 339 339
349 349 350 351 351 353 353 351 351 352 353 354 356 357 357 358 358 358 358 358 358 358 359 359 359 359 358 357 355 352 350 346 342 337 333 330 328 327 327 327 328 328 330 332 333 334 335 336 335 334 335 336 337 337 338 338 338 339 339 339 339 339 339
348 350 351 351 351 353 353 353 354 354 354 355 356 357 358 358 359 359 359 359 359 360 360 360 361 360 360 359 358 357 353 350 347 343 339 336 333 331 331 331 332 332 333 334 335 335 337 337 337 337 336 336 335 336 337 338 337 338 338 338 338 339 339
348 349 350 350 351 351 352 352 353 354 355 356 356 357 357 359 360 361 360 360 359 360 361 362 362 362 362 360 360 358 357 354 351 347 343 340 337 336 335 335 336 336 336 336 336 338 339 339 339 338 338 336 335 335 336 337 337 337 337 337 338 339 339
350 349 350 351 352 352 353 352 352 353 355 356 356 356 356 358 359 360 360 360 360 360 362 363 364 363 363 362 361 360 358 356 353 350 346 342 339 339 339 339 339 339 338 338 340 341 341 340 339 338 337 337 336 335 335 336 337 337 337 337 338 337 338
349 350 352 355 354 352 352 351 351 352 354 356 356 356 356 357 358 358 358 360 360 361 362 363 364 364 364 364 363 361 360 358 355 352 349 345 342 340 341 341 342 342 342 343 344 344 343 340 338 339 338 337 338 336 335 335 336 336 336 337 337 336 337
346 346 348 352 355 355 354 354 354 353 354 354 355 355 355 355 355 357 359 360 362 361 362 364 364 364 365 364 364 363 361 359 357 355 351 348 345 343 343 343 345 346 346 346 346 345 344 342 340 339 338 338 338 338 337 336 336 336 335 335 336 335 335
342 342 343 345 349 350 351 354 358 358 357 358 357 356 355 355 357 359 361 362 362 362 363 364 364 365 365 365 364 364 363 361 359 356 354 351 348 345 345 346 348 349 348 347 345 344 346 346 345 342 340 339 339 339 339 337 335 336 336 336 335 334 334
340 340 339 339 341 344 344 347 353 358 358 359 358 358 357 357 359 361 362 363 362 362 363 363 365 365 365 365 365 364 364 362 360 358 356 354 351 349 348 349 350 350 350 348 346 345 345 348 349 348 344 342 340 339 339 337 336 335 335 336 336 335 334
338 338 338 337 338 340 339 339 344 352 356 357 358 359 359 359 361 363 362 361 362 362 363 363 365 366 365 366 365 365 365 364 362 360 357 355 353 351 350 350 351 352 351 350 349 348 347 348 351 351 348 346 344 340 339 336 334 334 335 335 335 335 335
335 336 336 337 338 339 339 338 339 342 348 354 356 357 359 359 359 360 359 358 359 361 363 364 365 365 366 366 366 365 365 364 363 361 358 356 354 353 352 352 352 352 352 352 352 352 350 349 351 352 352 350 348 344 341 338 334 334 334 335 335 335 335
333 334 335 336 337 338 339 341 342 340 342 350 355 358 360 358 357 356 355 355 358 359 361 363 364 365 366 366 366 366 365 365 364 362 360 358 356 354 353 353 353 353 353 354 355 355 354 352 351 353 354 353 351 349 345 341 337 335 335 334 335 335 335
332 333 334 335 337 339 340 341 343 341 340 345 352 358 359 359 359 358 355 354 357 358 360 362 363 364 366 366 366 366 365 365 364 363 362 359 357 356 355 354 354 354 354 355 356 356 355 354 352 352 353 354 354 352 350 346 341 339 338 337 336 336 337
331 332 333 334 337 338 340 341 342 343 342 342 347 353 356 358 359 358 357 353 353 357 360 362 362 363 365 366 366 366 365 364 364 364 362 360 358 357 356 355 355 355 355 356 356 356 357 356 354 353 353 353 354 354 352 350 346 344 343 343 342 342 342
330 332 333 335 336 338 339 342 344 345 343 342 344 349 354 357 357 358 358 355 353 357 359 360 361 363 363 364 365 365 365 364 364 363 362 362 360 357 357 356 355 356 356 356 357 357 357 357 356 354 353 353 354 354 353 352 349 348 347 346 348 349 349
328 331 334 335 336 337 339 341 344 346 345 344 344 345 347 351 353 355 356 355 354 358 359 359 360 361 362 363 364 365 365 364 364 363 363 362 361 359 358 357 356 356 356 356 357 357 357 356 356 356 354 352 353 353 355 354 352 350 350 350 352 353 353
326 330 332 334 335 337 338 340 341 343 343 344 345 345 345 347 352 357 358 356 356 358 359 359 358 359 361 361 362 365 365 364 364 363 363 363 362 361 359 358 357 356 355 356 357 356 357 356 356 356 355 354 353 352 354 355 355 354 353 355 355 355 356
324 327 330 333 335 336 338 340 340 341 341 340 341 343 344 347 353 359 359 358 359 360 359 358 357 358 359 360 361 363 365 365 364 363 363 364 362 361 361 359 359 358 357 356 356 356 357 356 356 356 356 355 354 352 353 354 355 356 356 355 356 357 358
322 325 329 331 334 336 338 339 340 341 341 341 341 342 344 347 352 356 358 359 360 360 359 358 357 357 358 358 360 362 363 365 364 364 364 364 363 363 362 361 360 359 358 356 356 356 357 357 357 357 356 356 356 355 354 353 353 354 354 355 356 357 358
320 324 328 330 333 335 337 338 340 340 341 341 342 343 344 346 348 351 355 359 360 359 359 359 357 358 358 359 360 360 363 365 365 365 364 364 364 363 362 362 361 360 359 358 356 356 357 357 357 357 357 357 357 356 356 355 354 352 352 351 352 354 357
319 322 326 329 331 334 336 338 340 341 341 341 342 343 345 348 348 346 350 356 358 359 359 359 359 357 356 359 360 359 361 364 365 366 365 365 364 363 364 364 362 361 360 359 358 357 356 357 358 358 359 359 358 358 357 356 356 355 354 352 352 351 353
319 321 323 326 329 332 335 337 339 340 341 341 343 344 346 349 351 350 349 351 356 360 360 360 360 357 355 358 360 358 360 362 365 365 366 366 365 365 365 365 364 362 361 360 359 357 356 357 358 359 360 360 360 359 359 357 358 356 354 353 352 351 351
320 320 321 323 326 330 333 335 338 339 340 342 343 346 348 350 353 355 355 353 355 360 361 360 360 356 354 357 359 359 359 361 363 365 366 366 366 365 365 366 365 364 363 361 360 359 357 356 356 358 360 361 360 360 359 358 357 356 355 354 353 352 352
321 320 320 321 324 328 331 333 336 338 340 341 343 346 350 353 356 359 358 357 358 360 359 360 360 356 354 359 360 359 360 361 364 365 366 366 367 366 366 366 366 365 364 363 362 360 358 357 356 357 359 360 360 359 357 357 357 356 356 355 355 354 354
321 321 320 320 322 326 329 331 334 335 337 340 342 346 350 354 357 359 360 360 361 361 359 359 360 356 356 360 361 360 360 362 363 365 367 367 367 367 367 366 366 366 365 365 363 361 359 358 356 356 357 358 360 359 357 356 356 356 356 355 356 356 357
321 321 320 320 322 326 329 329 331 332 334 337 341 344 349 353 357 359 361 362 362 361 359 359 358 356 358 361 361 361 361 361 363 364 366 367 367 367 367 368 366 366 366 366 364 363 361 359 357 356 355 355 357 358 358 357 357 355 353 353 353 354 356
320 322 322 320 321 326 329 328 328 330 332 334 337 341 345 351 356 359 361 362 363 364 363 360 356 357 361 362 362 361 361 361 363 364 365 367 367 368 367 367 366 366 366 366 365 364 362 360 358 355 353 352 353 354 356 357 355 351 349 348 348 349 351
321 323 323 320 321 325 328 328 327 329 330 332 334 336 340 345 352 358 361 362 363 367 368 365 358 358 362 364 363 361 361 362 363 364 365 366 367 367 367 367 367 367 367 367 367 366 364 362 358 354 351 350 348 348 348 347 346 344 345 346 345 345 345
321 324 323 321 321 323 325 326 326 328 329 331 332 333 336 343 350 355 359 362 363 365 368 368 365 363 364 364 363 362 362 363 363 364 366 366 366 367 368 368 368 369 368 368 368 367 366 363 361 356 353 350 348 345 344 343 341 342 343 344 345 345 347
322 323 323 321 320 320 322 323 325 325 325 327 331 333 337 342 347 350 355 360 362 364 366 368 369 367 365 364 364 363 363 363 364 364 365 366 367 367 368 368 369 369 370 369 368 367 366 364 363 360 356 353 349 346 345 345 346 346 346 346 347 348 349
Wind_Speed
41 40 41 41 41 41 42 42 41 42 46 47 47 46 44 45 45 46 46 47 47 47 47 47 46 45 43 41 40 39 37 37 36 36 34 32 29 28 26 26 26 26 24 21 18 17 15 15 14 13 13 14 13 13 14 14 15 15 14 12 11 11 12
40 40 40 41 41 42 43 45 44 42 44 47 48 47 45 46 46 46 46 46 46 46 47 48 48 47 45 42 40 40 39 39 38 37 36 34 32 30 28 26 25 25 24 21 18 17 16 16 16 14 14 15 15 14 14 14 15 16 15 13 12 12 13
41 42 43 43 43 44 45 46 47 45 44 45 47 47 46 46 46 46 46 46 45 46 46 47 48 48 46 44 42 40 40 40 40 39 38 36 35 32 30 29 27 25 23 21 19 18 17 16 17 16 15 16 16 16 15 15 15 15 14 14 14 12 12
45 46 47 47 46 46 45 46 47 48 47 46 47 48 46 45 45 45 45 45 45 46 47 47 48 48 47 47 45 42 41 41 41 41 40 38 37 35 33 31 29 28 25 23 21 19 18 18 18 18 17 17 17 17 16 17 16 16 15 15 15 13 12
44 45 44 44 44 45 45 46 47 48 48 48 46 47 46 44 44 45 45 45 45 45 46 46 47 48 48 48 47 45 42 41 41 41 41 40 39 38 36 34 32 30 28 25 23 21 20 20 20 21 20 19 19 18 17 17 18 17 17 16 16 15 14
40 41 42 43 43 44 45 45 47 47 47 47 47 46 45 45 44 45 45 45 44 44 45 46 47 48 49 49 49 48 45 43 42 41 41 41 40 40 39 37 35 32 30 27 25 23 22 22 21 22 22 21 20 19 18 18 18 18 18 17 17 17 16
37 38 40 42 43 45 46 45 44 45 44 45 46 45 44 45 45 44 45 45 45 45 45 46 46 47 49 49 49 49 48 46 44 42 42 41 41 41 40 39 37 34 32 29 27 25 24 24 24 23 23 23 23 21 20 19 19 19 19 19 18 18 17
35 37 40 42 43 44 45 45 43 43 43 43 44 45 44 45 45 44 44 45 45 45 46 46 47 47 47 48 49 49 49 48 46 45 43 42 42 41 41 40 38 36 34 32 29 28 26 26 26 25 23 24 24 23 22 21 20 20 20 20 19 19 19
39 42 43 43 44 44 44 44 43 41 41 42 43 44 44 44 45 44 44 45 45 46 46 46 46 46 46 47 48 49 49 49 48 47 46 45 44 43 42 41 39 37 36 34 32 29 28 28 28 27 25 24 25 25 24 23 22 21 21 21 21 21 20
44 45 47 46 43 42 43 43 42 41 41 42 43 43 44 44 44 44 43 44 45 46 46 46 45 45 46 46 47 48 49 49 49 48 48 47 46 45 43 42 40 39 37 35 34 31 30 29 29 29 27 26 26 26 26 25 24 23 23 22 21 21 21
42 42 43 48 45 42 43 42 41 42 41 42 44 44 45 45 44 44 44 44 44 44 44 45 45 45 45 46 47 48 49 50 50 49 49 48 47 45 44 42 41 40 38 37 35 33 31 31 31 31 30 28 27 27 27 26 25 25 24 23 22 22 22
30 43 41 46 47 44 45 44 43 43 43 44 45 45 45 45 45 44 43 43 43 43 42 43 43 44 44 44 45 48 49 50 50 50 49 48 47 45 44 43 41 40 39 38 36 35 33 32 32 33 31 29 28 28 28 28 26 25 25 24 23 22 22
11 28 31 38 47 48 46 45 44 45 45 46 46 45 45 45 46 46 44 44 43 42 42 41 42 42 42 42 43 45 48 50 50 50 50 49 47 45 44 43 42 41 40 39 38 37 36 34 34 33 32 30 29 29 29 29 28 27 26 25 24 23 23
34 22 18 12 22 37 43 45 48 49 48 47 47 46 45 43 44 44 43 43 44 43 42 41 41 42 42 43 43 44 46 48 49 49 49 48 47 45 44 43 42 41 40 39 39 39 38 36 35 34 32 31 30 29 30 30 30 30 28 27 26 24 24
36 35 38 38 28 16 15 20 31 39 42 43 44 46 46 44 43 43 42 43 43 42 42 41 41 42 43 43 44 44 44 45 47 48 48 48 47 46 45 44 42 42 40 40 40 41 40 38 36 35 33 32 31 30 30 31 32 31 30 29 28 27 26
32 33 35 36 35 32 28 23 12 11 17 23 28 31 34 35 36 38 40 42 42 42 41 41 41 41 42 43 44 43 42 43 45 47 47 48 47 46 45 44 43 42 41 40 40 41 42 40 38 37 35 33 33 32 32 32 33 32 31 30 29 28 27
29 32 32 32 32 30 29 29 26 19 12 5 12 20 24 26 30 33 31 32 37 41 40 39 40 41 41 42 43 42 42 42 43 45 47 47 47 47 46 44 43 42 42 41 39 40 41 41 40 39 37 34 33 33 33 33 33 33 32 31 30 29 29
29 30 30 30 31 29 26 26 26 21 19 16 5 13 22 24 28 32 30 26 28 35 39 38 38 40 41 42 43 43 42 42 42 43 46 47 47 47 46 45 44 43 43 42 40 39 40 42 42 40 38 36 35 34 34 33 32 32 32 32 31 30 30
29 29 29 28 29 27 23 24 22 16 15 19 15 5 13 16 20 26 29 29 28 29 35 39 38 39 41 42 43 44 43 42 42 43 44 46 47 47 46 46 45 44 44 43 41 40 39 41 42 41 39 37 36 35 34 33 31 31 31 31 31 30 31
29 29 28 27 28 26 23 22 18 12 9 10 12 9 4 5 13 18 23 28 30 30 33 37 38 39 41 42 43 44 44 43 43 43 44 44 46 47 47 47 47 46 45 44 43 42 40 40 41 41 40 39 37 36 35 33 31 30 31 31 30 30 30
29 29 28 28 28 27 25 22 19 13 8 5 5 6 5 1 5 11 15 21 29 32 35 37 37 38 39 42 45 44 44 45 44 43 44 44 45 47 47 48 47 47 46 45 44 44 43 41 41 42 42 40 39 37 36 35 32 30 30 30 30 30 30
27 27 27 27 27 26 24 23 22 19 13 9 4 0 2 2 3 7 9 14 22 30 36 37 36 38 39 41 45 46 45 45 45 44 44 45 46 47 48 48 48 48 47 46 45 45 44 43 42 42 43 42 41 39 38 37 34 31 30 29 28 29 30
25 25 26 25 24 23 22 20 20 19 16 13 8 5 5 6 7 10 11 14 17 22 30 35 35 37 40 41 43 46 47 46 46 46 45 45 47 48 49 49 49 49 48 47 46 45 45 45 44 42 43 43 43 42 40 39 36 33 31 29 28 28 29
24 25 25 25 25 24 23 21 19 18 16 15 12 10 10 11 11 13 15 18 19 19 23 31 36 37 40 42 43 45 47 47 46 46 46 47 48 49 49 49 49 49 49 49 48 46 46 46 45 44 43 43 44 44 42 40 38 36 33 30 28 28 28
25 25 24 24 25 25 24 22 21 19 16 15 15 14 14 14 13 13 15 18 21 22 23 28 34 38 40 42 42 43 46 48 48 47 47 48 48 49 49 49 49 49 50 50 49 47 46 45 45 45 44 43 43 44 43 41 38 36 34 32 30 29 29
26 26 25 25 24 23 23 22 21 21 20 19 19 19 18 17 16 15 16 18 21 24 26 28 32 37 40 41 41 42 44 47 49 49 48 48 48 48 48 49 48 49 50 51 50 48 46 45 45 46 45 44 43 43 44 43 41 38 36 33 31 30 30
24 25 25 25 24 23 23 23 22 22 22 22 23 22 21 21 20 19 19 20 22 25 27 30 32 35 39 42 42 43 44 47 49 50 49 48 47 47 47 48 48 49 50 51 51 49 46 45 44 45 45 44 43 43 43 44 44 42 40 38 35 33 31
25 25 25 24 24 24 24 25 24 24 24 24 25 24 23 24 25 24 24 24 25 26 27 29 31 32 37 43 44 43 44 46 48 49 48 47 47 47 47 47 47 48 49 50 51 50 48 45 43 43 44 44 44 43 43 43 43 43 43 42 41 38 36
25 26 27 26 25 25 26 26 27 27 27 27 27 27 25 24 25 28 29 29 28 27 27 29 29 31 35 41 45 45 45 45 47 48 48 47 47 47 47 47 47 47 48 49 51 51 50 47 44 43 43 43 43 43 43 42 42 41 40 40 40 40 39
23 24 26 27 26 26 25 26 27 29 29 29 29 28 26 24 25 28 31 33 31 29 29 29 29 31 34 40 46 47 46 47 47 47 47 48 47 47 47 46 47 47 48 49 50 51 51 50 47 44 43 43 42 42 42 41 41 40 39 37 36 36 37
23 24 25 26 26 25 25 26 27 29 30 30 29 28 25 23 24 27 31 33 32 32 31 29 28 31 34 40 47 49 48 47 47 47 47 47 47 48 48 47 47 48 48 49 50 51 52 52 50 47 45 44 43 42 41 40 39 39 37 35 34 33 32
23 23 25 27 26 26 26 26 25 27 30 31 29 26 25 23 22 25 29 31 31 31 31 29 28 31 34 39 47 50 49 48 48 48 48 48 47 48 48 47 47 48 49 50 51 52 52 53 52 50 47 45 44 43 40 39 38 38 36 35 34 33 31
23 23 25 27 27 26 26 26 26 26 28 30 28 26 25 24 22 24 26 27 28 29 29 29 29 32 34 40 48 51 49 49 49 48 48 48 48 48 48 47 47 47 49 51 52 53 53 53 53 53 51 48 45 44 41 40 38 38 37 36 35 33 32
22 23 24 27 27 26 27 28 28 27 28 28 27 26 25 24 23 22 23 24 25 25 28 30 32 33 36 41 49 51 50 50 51 50 49 49 48 47 47 47 47 48 50 53 54 54 55 55 55 55 54 52 48 44 42 41 41 40 39 38 36 34 32
22 22 24 27 26 25 27 29 29 29 29 29 27 26 25 24 22 21 22 22 21 21 26 32 33 33 37 44 50 52 52 52 51 50 49 48 48 48 47 47 47 48 50 52 53 53 54 55 56 56 55 54 51 48 46 45 45 45 43 39 37 34 32
22 22 24 25 25 24 26 28 29 30 31 31 30 29 27 24 21 21 22 21 19 18 22 29 33 34 39 46 51 52 52 53 52 50 49 47 46 46 46 46 46 47 48 49 50 51 52 53 54 54 53 52 51 50 49 46 44 43 43 40 38 36 35
21 22 25 24 23 24 26 28 29 31 32 34 35 33 29 23 20 20 21 22 21 19 18 23 31 37 42 48 52 53 52 52 50 48 47 47 46 45 45 46 46 46 48 48 48 48 49 50 51 51 50 49 48 48 47 45 42 41 41 40 39 38 36
20 23 25 23 22 23 27 28 29 31 34 36 38 35 28 21 18 18 19 21 23 22 19 19 27 38 45 48 50 51 51 50 49 48 47 45 44 43 44 46 47 47 48 48 48 47 48 48 49 49 48 48 46 45 45 44 43 42 41 39 38 37 36
Wind_Direction
179 181 183 186 189 192 193 192 191 191 193 195 194 195 197 198 199 200 201 203 205 207 207 206 207 209 209 210 209 209 209 209 209 210 211 213 213 212 209 205 205 207 213 217 216 217 212 204 208 207 202 206 207 204 202 197 194 198 201 198 189 180 178
180 181 183 185 189 192 195 195 194 192 193 194 194 195 197 199 200 201 202 204 206 207 208 207 208 209 210 211 212 211 211 211 211 212 212 214 216 218 219 216 213 211 214 218 217 218 217 212 215 214 203 205 210 207 204 203 198 197 199 200 197 187 180
179 180 182 185 187 190 193 194 195 195 194 193 193 195 198 200 201 202 203 205 206 208 209 209 209 210 211 211 213 213 213 213 213 214 213 214 215 218 221 222 221 220 219 220 220 218 217 215 217 217 209 204 210 211 206 206 204 200 198 199 203 199 190
179 181 183 185 186 189 192 193 194 196 197 196 197 197 199 200 202 203 205 206 207 208 210 211 211 211 212 212 213 215 215 215 215 215 215 216 216 218 221 223 224 224 223 224 224 220 217 215 215 217 215 208 208 213 211 208 208 206 201 200 205 205 201
179 181 182 183 184 187 191 194 195 196 198 199 200 200 200 201 202 204 207 209 211 211 212 213 213 212 213 214 215 217 218 217 216 216 217 218 218 219 221 223 224 225 225 226 226 222 218 216 213 214 217 213 209 211 212 211 210 209 207 203 204 205 202
179 179 180 181 183 186 190 195 197 198 199 200 200 201 201 201 203 204 207 210 211 212 212 213 213 214 214 215 216 217 219 219 218 217 218 218 219 220 221 223 224 225 226 226 226 224 221 220 217 215 216 215 211 208 211 213 211 210 210 206 205 205 202
176 175 176 179 181 186 190 194 197 198 199 200 200 201 201 201 203 204 207 209 210 211 211 212 213 214 215 216 217 218 219 220 220 220 219 219 220 221 222 224 225 226 228 228 227 223 221 222 221 219 217 215 212 209 211 214 213 212 212 211 209 207 205
175 175 176 180 184 188 190 193 196 197 198 199 198 198 199 200 202 204 207 208 210 210 211 212 213 215 216 217 218 219 220 220 220 220 220 220 221 222 223 224 225 227 228 228 228 223 220 222 223 223 220 216 213 212 212 214 216 215 214 214 212 211 210
178 180 182 185 187 191 192 193 195 196 197 198 198 197 199 201 202 204 207 208 210 211 212 213 214 214 217 218 219 220 220 220 220 221 221 222 222 223 224 224 226 227 228 228 228 224 220 221 223 224 223 219 215 213 214 216 217 218 219 217 214 214 214
178 181 186 187 186 189 192 194 195 195 197 198 197 198 199 201 203 203 206 208 211 212 212 213 213 214 216 218 220 220 220 220 220 221 221 222 223 224 224 225 226 227 227 228 227 225 221 220 222 224 224 222 218 214 215 217 218 220 223 222 219 217 217
183 180 184 187 186 187 189 191 192 194 197 198 197 199 200 202 202 202 204 207 210 212 212 213 214 215 216 218 220 220 220 220 220 220 220 221 222 223 224 225 225 226 226 226 225 223 220 218 220 222 224 224 221 216 215 218 219 220 223 225 224 221 220
190 185 184 185 186 187 188 190 191 194 197 199 199 201 202 203 202 200 202 205 208 210 211 212 213 214 216 218 219 219 219 219 219 219 219 220 221 222 223 224 224 224 224 223 222 221 220 218 219 220 223 225 223 219 217 219 221 222 224 226 225 224 223
111 176 183 185 187 188 186 188 191 194 197 199 200 202 204 204 202 201 201 203 207 209 210 212 212 212 214 216 216 217 217 218 218 218 218 219 221 221 221 221 222 222 222 222 219 218 218 218 219 220 223 225 224 222 220 220 222 224 226 227 226 225 225
49 56 55 90 166 183 187 189 192 195 197 197 198 201 204 205 205 203 203 204 206 208 210 212 211 211 213 214 215 216 216 217 217 217 217 218 220 221 220 219 219 221 222 222 218 215 216 218 219 220 223 225 226 224 222 222 223 225 227 228 228 228 227
42 38 37 45 62 103 147 174 188 194 197 197 198 201 204 207 207 205 204 205 206 207 209 211 211 211 212 214 216 216 216 217 217 216 216 217 218 219 219 219 218 219 221 222 219 216 215 218 220 220 222 224 226 226 224 223 224 226 228 229 230 230 230
36 34 34 38 44 52 53 53 78 154 184 194 197 199 200 202 204 204 205 207 207 207 208 210 211 211 212 214 216 217 216 216 216 216 215 216 217 218 218 218 217 217 220 222 220 216 214 216 219 221 222 224 225 226 226 226 226 227 229 230 231 231 232
29 29 28 28 31 37 42 43 48 60 75 127 192 197 196 199 202 202 204 207 208 208 208 209 211 212 212 214 216 217 217 216 215 216 215 215 216 217 217 217 216 216 218 220 220 217 214 214 218 221 223 224 225 226 227 228 229 230 231 232 233 233 235
22 22 20 19 21 24 27 29 33 44 53 53 78 191 194 198 203 203 204 212 216 212 209 209 213 214 213 214 216 217 218 216 215 216 216 216 216 216 216 216 215 214 215 218 220 218 214 213 216 221 223 224 226 227 228 230 231 232 233 234 234 235 237
17 15 13 13 16 15 14 16 18 23 34 40 46 117 188 199 209 209 211 221 228 221 212 211 214 216 215 215 216 217 218 218 218 217 217 216 216 216 216 215 214 213 213 215 218 218 216 214 214 219 224 225 226 229 230 231 232 233 235 235 236 236 237
13 8 4 5 7 6 6 10 15 17 20 34 53 77 121 223 234 228 224 226 229 227 220 215 215 217 218 217 217 218 219 220 220 219 218 217 216 216 216 214 214 213 212 213 216 218 218 216 213 216 221 226 228 230 233 234 233 233 234 236 236 237 237
10 4 359 358 359 359 359 357 357 4 13 20 62 95 98 97 251 251 243 232 230 229 224 219 217 219 220 219 218 219 220 221 221 220 219 218 216 216 216 215 214 213 211 212 215 218 220 218 215 214 217 223 227 230 234 237 237 235 235 236 237 237 238
4 0 358 356 356 356 353 347 342 345 350 351 353 145 181 186 229 264 257 237 236 234 227 221 220 221 223 221 219 218 220 222 222 220 219 218 217 215 215 215 214 212 211 211 214 218 220 220 218 215 215 219 224 228 232 237 239 239 238 238 238 238 238
2 359 356 353 352 350 346 341 337 334 331 328 321 293 280 276 269 273 261 240 243 245 233 225 222 223 224 224 222 219 219 222 222 220 219 219 217 216 215 215 214 213 211 211 213 216 219 220 220 219 217 217 221 226 230 234 237 239 240 240 239 238 238
1 358 354 351 347 343 340 338 335 331 325 317 307 289 282 285 283 281 268 250 249 257 247 233 227 226 227 227 226 222 219 220 222 221 220 220 219 218 216 215 215 214 212 211 212 215 217 219 220 220 219 218 219 222 226 230 234 237 238 239 240 239 239
359 357 353 350 345 340 336 332 327 322 315 306 300 292 280 278 280 280 274 262 255 260 261 246 235 231 230 230 230 225 220 220 222 222 222 222 221 219 217 216 216 214 213 212 212 214 216 218 219 219 220 220 220 221 223 226 230 234 236 237 238 239 240
357 357 353 349 344 338 333 328 323 318 312 304 298 293 285 278 276 272 267 265 263 262 262 255 244 238 235 234 233 229 224 221 221 222 224 224 222 220 219 217 216 215 213 212 212 213 215 217 219 219 220 221 221 221 222 223 225 229 232 234 236 237 238
356 357 355 350 344 335 328 324 321 317 312 306 299 294 287 281 275 268 258 257 262 262 258 255 253 246 238 234 234 232 228 223 221 221 223 223 223 221 219 218 217 216 215 213 212 212 213 216 219 219 219 221 222 222 222 223 224 226 228 231 233 233 234
355 355 355 351 344 336 328 323 320 315 309 305 300 295 291 285 276 268 262 257 255 254 252 254 258 255 243 234 232 232 229 225 222 220 220 221 222 221 219 218 218 217 216 214 213 212 212 214 217 219 219 220 221 222 223 225 226 228 228 230 231 232 233
357 355 355 352 344 337 330 323 320 316 310 307 304 298 295 290 278 269 265 260 252 247 250 254 259 260 251 237 231 231 230 226 222 220 218 218 220 221 220 218 217 218 217 216 215 214 213 213 215 217 218 218 220 222 223 225 227 230 230 230 231 233 234
354 354 355 355 348 340 330 322 318 315 311 309 307 303 300 294 285 275 267 260 252 250 254 256 257 258 253 242 232 230 229 227 224 221 218 217 218 220 220 218 217 217 218 217 216 215 214 213 214 216 217 217 219 220 222 224 226 230 232 232 232 232 234
345 351 355 355 350 343 335 326 320 316 312 309 308 307 304 294 285 280 272 263 257 256 258 261 258 255 251 242 233 228 227 225 223 221 219 217 217 218 219 218 217 218 218 218 217 216 215 214 214 215 216 217 218 219 221 223 225 228 231 232 232 232 233
336 345 353 354 351 348 340 331 324 319 314 310 308 308 304 294 282 275 271 267 264 261 259 262 261 254 248 240 231 226 224 221 219 219 218 217 217 218 219 218 218 219 218 217 217 217 216 215 214 214 215 216 218 220 222 223 224 226 228 229 230 231 232
330 338 349 352 353 354 348 340 335 331 323 317 314 310 304 295 282 270 267 270 272 265 258 260 259 252 246 237 229 224 220 218 217 217 216 216 217 218 218 219 219 220 219 217 217 217 216 216 215 214 214 215 216 219 222 223 224 225 226 226 227 229 231
328 335 345 350 353 356 355 348 344 342 336 328 324 318 308 298 287 275 270 275 277 267 258 258 255 249 243 234 225 221 218 216 216 216 215 215 216 217 217 218 219 220 220 219 217 216 215 215 215 215 215 214 214 215 218 221 223 226 228 228 228 228 228
330 333 339 344 349 356 357 351 346 348 345 337 332 325 313 302 291 278 271 272 273 267 261 257 251 247 240 230 222 220 217 215 215 215 214 214 215 217 219 220 220 221 222 222 220 219 217 215 215 216 216 216 215 215 215 217 222 228 231 232 232 232 232
332 332 332 337 344 354 359 352 346 349 351 345 339 333 323 312 296 278 268 265 263 264 263 255 247 244 236 226 220 218 216 213 212 213 213 214 215 217 219 221 223 224 224 223 223 222 221 219 218 219 219 219 219 220 221 223 227 230 232 234 235 236 239
331 326 326 332 339 350 359 355 347 350 354 351 345 340 331 318 302 283 271 264 258 257 257 250 245 241 233 224 219 218 216 212 210 210 212 213 215 217 218 220 222 224 224 224 224 224 224 224 223 223 223 223 224 226 227 230 232 233 234 235 236 237 239
324 320 320 324 331 343 355 357 351 350 353 351 348 345 337 324 313 300 282 265 255 250 246 244 243 237 230 223 220 219 216 212 210 210 211 212 214 216 218 220 221 222 223 224 224 224 225 225 225 226 227 227 229 230 230 230 231 232 235 236 236 237 238